GFSSGP_sfc_dewp_057.txt.gz
Dewpoint
51 42 40 36 23 24 22 20 21 22 25 32 37 30 31 41 33 24 51 59 65 69 70 70 72 73 72 72 72 72 72 71 70 68 68 67 67 65 65 65 64 63 63 62 63 65 66 66 66
49 40 38 30 18 17 18 21 22 22 31 34 30 35 41 44 47 51 54 67 69 70 70 70 71 72 73 73 72 72 71 71 69 68 67 67 66 65 65 64 62 61 61 61 61 62 64 65 63
41 35 29 24 19 16 19 19 21 26 32 23 33 38 43 44 49 49 55 68 70 70 70 70 70 71 72 72 72 72 72 71 70 68 67 67 66 66 64 63 61 59 58 58 59 59 61 61 63
34 32 23 17 20 17 18 19 21 26 22 29 36 38 46 48 49 54 59 68 69 70 70 70 71 72 72 72 72 72 71 70 70 68 67 67 66 66 65 64 62 59 56 56 56 57 58 59 60
32 28 18 17 25 27 18 19 20 20 19 26 30 37 45 47 53 59 66 67 67 69 69 69 70 71 72 72 72 71 71 70 70 69 67 67 67 66 65 64 63 61 56 54 54 54 56 56 57
28 24 17 16 16 21 21 20 20 17 25 30 34 37 42 44 55 55 61 62 66 68 69 69 67 68 70 70 71 71 71 70 70 69 68 67 67 66 65 64 63 61 56 52 51 52 53 53 54
24 22 19 16 14 20 19 20 15 19 22 25 33 34 40 45 53 51 52 54 59 64 67 69 68 67 67 68 68 69 69 70 69 69 69 68 68 67 65 65 64 61 58 54 52 51 51 50 52
25 20 15 20 15 15 19 19 16 19 21 27 29 30 40 41 50 45 44 44 46 49 52 61 67 67 67 68 65 66 67 68 68 68 67 66 66 66 65 64 64 62 59 56 53 52 51 51 51
21 12 12 14 15 18 20 18 22 24 24 28 30 30 31 42 45 43 42 41 43 43 44 46 58 62 68 68 66 64 65 66 66 65 64 63 65 65 64 63 64 63 61 58 55 53 52 50 51
20 12 15 17 18 19 20 19 21 21 24 25 29 31 35 43 41 43 43 42 40 41 44 45 46 50 56 65 67 66 66 67 67 65 65 65 65 64 64 61 62 62 62 61 57 55 52 47 43
19 14 17 21 25 24 20 20 21 20 20 23 26 30 33 39 40 39 38 39 39 40 45 49 50 50 48 57 65 67 66 66 67 64 65 66 64 63 62 61 59 59 57 57 54 51 49 47 47
21 21 16 26 27 23 21 22 21 21 25 27 25 31 33 36 38 37 35 36 38 42 47 48 50 51 50 49 61 66 64 65 65 65 65 64 63 61 61 61 60 59 57 55 54 53 52 50 50
19 22 22 28 27 26 27 24 22 23 28 30 30 32 32 34 35 35 35 37 39 44 46 47 49 51 52 48 64 63 62 62 63 64 65 65 63 62 62 61 60 59 57 55 53 52 52 51 50
25 26 25 26 27 27 26 25 26 25 29 30 31 31 32 33 33 34 35 37 41 44 46 48 52 53 53 57 61 60 60 59 60 60 61 62 62 60 59 58 57 56 55 54 54 52 51 50 50
26 21 22 22 26 26 26 22 23 25 29 29 29 30 31 31 32 33 35 36 41 45 46 48 52 54 54 57 57 57 57 57 57 57 57 58 59 58 56 55 55 54 54 53 50 47 46 45 46
22 23 23 23 28 26 22 20 22 26 28 28 28 29 29 30 31 32 34 35 43 44 46 48 52 53 54 55 54 54 54 55 55 55 55 55 55 55 54 53 52 52 50 48 46 44 42 43 44
23 20 22 22 26 25 22 21 25 27 27 27 27 28 29 29 29 31 32 36 44 45 46 47 48 51 51 50 48 48 47 49 50 51 51 50 50 50 50 49 48 47 44 40 38 38 40 42 42
20 22 22 22 24 24 23 22 24 26 27 26 26 27 28 28 28 29 32 40 43 44 45 46 48 48 46 45 42 41 41 40 42 45 45 44 43 43 43 42 42 41 35 32 33 35 35 38 38
21 22 22 24 25 23 23 23 23 24 26 26 26 26 27 28 29 30 33 41 43 44 44 45 46 45 44 44 43 42 38 37 37 37 38 39 37 35 35 35 35 34 31 30 29 30 34 30 32
23 23 22 24 25 24 24 23 24 24 24 25 25 26 26 27 28 29 34 41 42 44 44 44 45 44 43 44 37 34 33 30 31 33 33 33 32 31 32 31 29 28 27 25 24 24 24 23 25
24 23 23 23 25 24 23 23 23 24 25 25 25 25 26 26 27 28 33 40 42 43 44 45 44 44 44 34 31 29 29 29 29 30 30 30 30 30 28 27 26 24 24 22 21 20 18 19 22
24 26 25 25 25 23 26 19 22 24 25 25 26 25 25 26 27 28 31 39 42 43 44 45 44 43 34 33 33 33 34 32 28 28 28 28 28 26 26 25 24 24 23 21 21 20 18 17 16
26 28 27 27 25 24 24 22 25 25 24 25 26 27 26 26 27 28 31 36 41 44 44 45 44 36 33 33 34 34 33 27 26 26 26 25 26 25 24 23 23 22 22 22 21 21 20 20 19
29 26 27 28 25 22 22 23 19 23 24 25 26 26 28 27 28 28 31 37 41 42 44 45 42 36 33 33 32 29 26 25 25 24 24 23 23 23 23 22 22 22 22 21 22 22 21 21 22
27 25 22 20 21 21 25 23 20 23 25 26 25 27 29 28 27 29 33 39 40 41 44 43 39 33 33 32 30 27 25 24 22 22 21 20 20 21 20 21 21 21 22 23 23 22 21 20 20
27 26 23 14 18 18 25 24 25 28 27 28 29 30 30 27 28 30 33 38 39 40 42 40 38 32 31 30 28 27 25 23 21 20 19 18 18 18 20 21 21 21 21 22 22 22 21 20 20
26 25 26 23 14 20 20 23 26 29 29 29 29 29 27 27 28 30 34 37 38 39 39 39 35 32 30 29 27 25 23 22 20 20 19 18 18 18 19 20 20 21 21 20 20 20 19 19 19
26 28 25 25 15 15 20 23 22 26 27 28 28 28 28 27 27 30 34 36 36 36 34 33 32 30 29 27 26 23 22 21 20 19 19 18 17 17 19 19 19 19 19 19 19 19 19 18 19
27 26 26 26 25 18 17 20 27 27 27 27 28 28 29 27 27 29 32 33 33 32 29 28 29 29 27 26 25 24 22 21 20 19 19 17 17 17 17 18 19 19 18 18 17 18 17 17 17
29 26 26 23 21 25 24 21 29 29 29 28 28 28 29 27 26 27 29 29 28 28 27 26 26 27 27 26 25 23 22 21 20 18 17 18 16 17 17 17 18 18 18 17 15 15 15 15 15

GFSSGP_sfc_dewp_060.txt.gz
Dewpoint
53 42 41 30 21 23 22 19 21 20 26 38 34 27 27 42 30 20 48 60 67 68 69 69 71 72 72 72 72 72 71 70 68 67 67 66 65 65 65 64 63 63 63 64 66 66 66 67 67
48 40 35 25 19 16 17 20 20 21 36 37 34 36 41 42 48 53 56 66 68 69 70 70 70 72 72 72 71 72 71 70 68 67 67 66 65 63 63 62 61 60 60 62 64 65 64 66 66
41 34 29 22 18 14 18 20 20 29 35 24 36 42 43 45 49 50 55 68 69 69 69 70 71 72 72 72 72 72 71 70 68 67 67 66 65 64 62 60 59 58 58 59 62 63 64 64 64
35 31 21 17 24 24 27 21 22 30 27 31 40 41 45 51 50 54 63 68 68 69 69 69 71 72 72 72 72 71 71 70 68 67 67 67 66 65 64 62 58 57 56 57 59 60 61 62 61
30 24 18 18 23 27 19 20 26 26 20 28 32 37 44 47 51 58 64 67 67 68 69 69 69 71 71 72 71 71 71 70 69 68 67 67 66 65 64 63 59 55 55 55 57 58 58 59 57
26 22 17 16 21 23 30 19 20 19 24 30 36 42 45 43 54 56 64 64 66 68 69 69 67 68 70 71 71 71 70 70 70 68 67 67 66 65 64 63 60 56 53 53 54 55 55 56 54
24 21 17 22 15 19 19 20 17 20 26 26 36 38 40 44 53 54 58 60 64 66 67 68 68 67 67 68 69 69 69 69 69 69 68 68 67 66 65 64 61 59 56 53 53 52 53 53 53
23 21 15 22 15 17 22 18 16 21 21 30 30 29 37 45 51 48 50 51 54 59 61 65 66 67 67 67 65 66 67 68 68 68 67 65 65 65 64 63 63 60 57 55 54 54 53 52 51
17 13 13 14 15 16 19 19 20 24 25 27 29 31 35 48 46 47 48 47 49 49 51 55 63 66 67 68 65 64 65 66 66 65 64 62 65 64 63 62 63 62 60 57 55 52 51 51 50
13 9 10 16 17 18 20 19 21 22 24 24 27 31 40 47 45 50 51 51 49 47 47 48 51 59 62 67 67 65 66 67 67 66 64 64 65 64 63 60 61 62 60 57 55 53 51 47 43
18 6 16 22 24 24 20 19 21 21 21 21 24 29 41 45 45 50 51 50 49 45 45 49 49 50 54 59 65 65 65 65 65 64 64 65 64 63 62 61 59 57 56 53 52 50 49 48 47
24 20 15 24 26 22 20 21 20 21 20 27 24 31 38 42 44 46 47 45 41 42 44 48 50 51 50 51 59 65 65 65 64 64 65 64 63 62 61 60 60 57 55 53 52 51 51 49 48
24 25 21 26 26 25 26 25 21 22 23 29 28 33 36 40 41 39 39 38 38 41 45 47 48 50 51 50 59 63 64 64 65 65 65 64 63 61 61 61 60 58 55 53 52 51 51 49 46
24 26 24 25 26 26 25 31 31 28 28 29 29 31 34 36 39 37 35 36 38 41 44 46 49 51 52 50 61 62 62 62 62 63 64 63 63 62 60 58 57 56 55 54 54 52 50 49 45
25 25 22 21 26 25 29 21 23 30 28 28 29 30 31 33 34 36 36 36 38 42 44 46 49 51 53 54 59 58 59 59 59 59 61 62 61 60 58 56 55 55 54 52 49 47 48 45 41
22 23 22 22 27 26 22 20 21 24 27 27 28 29 30 31 33 33 34 36 38 42 44 46 52 52 55 56 56 56 56 57 56 56 56 57 58 58 56 54 54 53 51 49 47 46 44 42 38
23 18 22 21 26 25 22 20 23 27 27 26 27 28 29 29 30 31 33 35 37 43 44 46 49 52 54 52 51 50 51 52 53 54 54 53 54 54 53 52 50 48 45 43 42 42 42 38 34
19 22 22 22 23 24 24 22 23 24 26 26 26 27 28 29 29 30 31 33 39 43 44 46 48 50 49 46 45 45 44 45 47 49 49 49 49 49 49 47 44 39 37 37 39 40 38 37 27
20 22 24 22 25 23 23 23 23 24 25 25 26 26 26 27 29 29 30 33 40 42 44 45 47 47 46 46 46 45 42 41 41 42 43 44 44 44 44 42 37 33 34 36 39 37 34 32 28
23 24 22 23 25 23 24 24 25 25 24 25 25 26 26 27 27 29 30 34 40 42 44 44 48 45 47 48 42 39 37 34 36 37 36 37 38 39 39 38 32 29 31 33 34 33 26 25 27
23 22 22 22 25 26 24 23 23 24 25 25 26 26 26 26 26 28 29 32 39 42 44 45 47 45 46 39 33 33 33 33 34 33 34 33 34 34 33 30 28 26 28 31 26 25 26 23 22
23 25 24 24 24 21 24 18 21 22 23 25 25 26 26 26 26 27 28 32 38 41 44 45 46 46 44 35 36 39 40 38 34 32 31 30 31 29 27 26 24 23 23 22 21 18 18 20 17
24 28 26 27 25 24 23 22 22 27 23 24 25 26 26 27 27 27 28 30 35 40 44 45 44 45 38 37 38 39 39 31 30 29 28 28 28 26 24 23 22 21 22 21 20 18 18 17 17
29 26 27 28 25 22 22 21 17 22 22 23 24 25 26 27 27 27 29 31 37 42 44 45 44 40 36 37 37 38 31 30 30 27 27 26 25 24 22 21 20 20 20 20 20 20 18 19 19
27 25 20 17 20 18 23 22 19 21 24 24 24 24 28 29 27 28 29 34 38 41 43 45 45 39 36 36 36 33 32 31 30 26 25 22 22 21 20 20 20 20 20 21 21 20 20 19 18
27 25 21 10 14 15 25 22 23 27 26 25 26 27 30 29 28 28 30 35 38 40 43 45 45 39 35 35 32 31 30 30 30 26 22 20 19 18 20 20 20 20 20 20 20 20 20 20 20
26 25 25 19 13 18 15 18 22 27 28 29 29 29 29 29 29 28 31 36 38 39 42 44 42 38 35 34 30 29 28 27 26 23 20 19 18 18 20 19 19 20 20 20 19 19 19 19 20
26 27 23 24 14 13 17 19 19 21 25 26 27 28 29 29 28 28 32 35 37 39 42 42 41 36 34 33 31 29 27 26 23 21 19 19 18 17 19 19 19 19 19 19 18 19 19 18 19
26 26 25 25 23 16 14 15 25 22 23 25 27 28 29 29 28 28 32 35 36 37 37 38 38 35 32 31 30 28 26 24 22 21 19 18 17 18 18 18 18 18 18 18 18 18 18 17 17
27 26 26 22 19 23 22 19 27 28 28 28 27 29 31 29 28 28 31 33 33 34 33 33 35 34 32 30 28 27 25 23 22 19 18 19 17 18 18 18 18 18 18 18 17 16 17 16 15

GFSSGP_sfc_dewp_063.txt.gz
Dewpoint
53 43 43 34 29 28 24 24 22 24 27 33 28 27 30 36 25 21 49 64 66 67 68 69 71 72 73 72 71 71 70 68 67 66 66 65 65 64 63 63 63 64 65 66 66 68 67 66 66
47 39 37 29 25 20 19 22 23 24 37 40 36 39 40 43 48 53 60 63 67 68 68 69 70 72 73 71 71 71 70 69 67 67 66 64 63 62 61 61 61 62 64 65 66 67 66 65 64
42 32 35 26 21 17 20 22 23 33 37 28 38 42 42 44 47 52 55 65 68 69 69 69 70 72 72 72 71 71 70 69 68 67 66 65 64 62 60 59 59 59 62 64 65 66 65 63 62
37 33 25 21 22 23 24 22 26 34 32 32 39 39 45 49 50 54 66 67 68 69 69 69 70 72 72 72 71 71 70 69 68 67 66 66 65 64 60 58 58 58 59 61 62 63 62 59 59
31 27 23 23 23 22 20 22 32 31 24 32 32 34 46 47 51 59 67 68 68 69 69 69 70 71 72 72 71 71 71 69 68 67 67 66 65 64 62 58 56 56 58 59 60 60 57 55 56
30 24 21 20 21 21 22 22 28 23 25 31 35 42 44 45 56 60 67 67 68 68 69 69 67 69 70 71 71 71 70 70 69 68 67 66 65 64 62 59 56 55 56 56 57 57 55 53 53
29 25 22 21 20 23 20 21 22 21 27 28 38 38 40 44 55 59 64 66 68 68 68 68 68 68 67 68 69 69 69 69 69 68 68 67 66 66 64 63 60 56 55 55 55 55 53 52 51
26 24 23 20 17 21 21 20 20 23 24 32 36 29 34 46 53 55 58 60 63 66 67 68 68 69 69 69 66 67 68 68 68 68 66 65 65 64 64 62 61 58 57 56 55 53 52 52 52
24 20 19 18 18 19 21 20 22 26 27 29 30 32 36 50 50 53 54 54 56 58 62 66 67 67 68 68 66 65 65 66 66 65 63 63 64 63 62 62 61 59 57 54 53 53 53 51 51
16 17 15 18 18 19 21 21 20 23 26 27 28 31 41 49 50 55 56 57 57 56 56 60 63 66 67 68 67 68 68 68 67 67 66 65 65 64 62 60 60 59 58 56 55 52 50 45 43
23 9 13 20 22 23 21 21 22 22 23 24 25 28 42 49 50 55 57 58 57 54 51 52 55 54 63 65 67 67 67 68 68 67 66 65 64 63 62 60 58 55 53 51 51 50 47 46 45
17 21 17 27 28 24 21 22 21 22 21 28 25 30 43 49 50 53 55 54 51 48 50 50 51 53 54 57 62 67 67 67 67 66 66 65 64 63 61 60 58 56 54 53 52 50 48 46 45
20 21 22 27 27 25 25 23 21 22 22 30 28 34 41 48 50 48 52 51 48 47 47 49 50 52 52 53 56 64 66 67 66 66 66 65 64 63 61 61 59 56 54 53 52 50 47 44 42
25 26 25 26 26 26 25 25 27 24 28 28 29 30 36 43 47 43 42 45 43 44 46 47 48 51 52 52 56 62 64 64 65 65 65 64 64 62 61 60 58 56 55 54 53 50 46 42 38
26 23 23 23 26 26 27 22 22 26 29 27 28 28 32 37 39 42 43 41 40 41 44 46 48 52 53 52 57 61 62 62 62 63 64 63 63 61 59 58 56 55 55 52 50 48 43 38 32
24 24 20 22 27 26 25 20 21 25 26 26 27 28 30 31 35 37 38 38 38 40 43 46 49 52 53 55 58 59 59 60 60 60 61 62 61 60 59 57 55 55 52 50 49 45 40 35 28
23 15 21 21 26 26 24 22 23 28 27 25 26 27 29 30 31 32 35 37 37 39 43 46 50 52 53 55 55 56 56 56 57 57 57 59 59 58 57 55 53 51 49 48 46 43 38 28 21
18 21 21 20 23 25 24 23 24 24 26 26 26 26 27 28 29 30 32 34 36 40 43 46 49 51 53 51 49 50 49 50 52 53 54 54 55 55 55 53 50 48 44 44 43 40 34 25 19
20 19 18 21 24 25 24 24 24 25 25 25 25 26 26 27 28 31 32 33 35 40 43 45 48 50 50 49 49 49 48 46 46 48 49 51 51 51 51 50 44 43 43 43 41 38 29 23 21
23 22 22 23 25 25 24 24 25 26 25 26 25 25 26 26 27 30 31 32 34 37 42 45 48 49 49 50 48 46 43 40 41 42 43 46 47 48 47 45 40 39 41 41 40 34 29 23 28
23 22 21 21 24 25 24 24 24 25 26 26 26 26 26 26 27 28 30 31 34 38 42 44 47 48 49 48 39 37 37 39 37 37 39 39 44 44 43 39 35 38 42 40 39 35 31 28 28
22 24 24 24 24 19 24 16 23 22 22 25 26 26 26 27 28 28 29 30 33 37 41 44 47 47 48 41 44 43 45 43 39 39 37 35 38 38 37 32 32 36 40 39 38 34 31 31 29
23 27 25 25 24 24 24 22 20 24 22 23 23 26 26 28 28 28 28 30 31 36 42 44 47 47 45 42 44 45 44 41 37 35 34 33 33 34 31 28 29 32 35 36 33 29 28 29 25
29 27 27 27 24 21 21 19 10 20 21 21 23 24 26 27 29 29 29 31 33 38 42 44 46 47 42 41 43 44 43 35 35 34 33 31 30 29 27 25 24 26 29 30 28 26 26 24 22
27 24 18 16 21 19 23 20 12 21 22 22 21 21 25 27 29 29 29 30 35 39 42 44 45 46 41 42 41 43 38 37 37 35 33 29 27 26 22 22 23 21 22 23 23 23 22 22 21
26 23 19 10 12 12 24 21 20 25 26 26 24 25 28 29 30 30 30 31 36 39 42 43 44 44 41 41 41 40 37 37 37 35 32 30 29 26 21 21 21 21 21 20 22 21 21 21 21
26 25 22 17 13 18 15 17 19 25 24 26 28 29 29 29 30 30 30 32 36 39 41 43 43 44 40 40 40 36 35 36 35 32 30 26 25 20 19 20 20 20 20 20 19 20 19 21 20
24 27 23 23 13 12 14 16 14 19 22 24 25 27 29 30 30 30 30 32 36 39 41 43 44 44 39 39 36 34 33 33 32 29 26 23 21 19 19 19 19 19 19 19 19 20 20 19 21
25 25 25 24 22 15 13 14 20 20 21 21 24 27 29 30 30 30 30 32 36 38 40 43 43 41 38 36 35 33 31 30 29 27 24 22 20 19 18 18 19 19 18 18 18 19 18 18 18
27 24 25 21 19 22 21 17 23 24 28 29 28 28 29 30 30 29 30 33 35 37 38 41 41 38 36 35 34 32 29 27 26 26 22 21 19 19 18 18 18 18 18 18 17 16 17 17 16

GFSSGP_sfc_dewp_069.txt.gz
Dewpoint
53 37 39 38 30 24 20 21 21 22 24 26 34 28 28 29 26 36 59 61 61 62 62 65 70 70 71 71 70 70 68 67 66 65 65 64 64 65 65 66 68 68 68 67 66 65 64 63 62
36 35 38 31 25 19 15 19 20 22 29 28 31 32 30 36 45 54 59 62 62 62 63 64 70 71 71 71 70 70 68 66 65 64 63 63 62 63 64 65 66 67 67 67 66 64 63 62 63
39 30 34 29 23 17 14 18 18 26 31 29 29 35 34 38 48 55 60 62 62 62 63 66 70 72 71 71 70 70 69 67 65 64 63 61 61 61 63 64 65 67 67 65 63 62 62 62 63
34 30 27 23 19 18 17 17 20 29 27 28 30 29 40 48 53 56 62 62 62 62 63 69 71 72 71 71 70 70 69 67 66 66 64 61 60 60 62 63 63 64 64 62 61 61 62 62 62
33 29 24 23 18 19 19 18 23 24 22 25 30 28 36 48 54 58 61 62 62 62 64 67 71 71 71 71 70 70 69 68 67 66 65 62 60 59 61 61 62 63 60 59 59 60 60 61 61
27 26 21 20 17 18 19 19 23 21 20 27 28 26 36 48 54 58 61 61 61 62 65 65 67 69 70 70 70 70 69 68 67 66 65 62 60 59 59 60 61 60 58 57 57 59 60 60 60
31 25 20 21 15 17 18 22 24 22 18 21 27 24 37 45 51 57 61 61 61 62 64 64 65 67 67 68 68 68 69 68 68 67 66 65 62 61 61 60 59 59 57 55 56 58 60 60 60
29 25 21 20 15 15 20 23 24 22 19 29 31 22 27 41 52 57 59 60 60 62 62 64 64 65 66 68 66 67 67 68 67 67 65 64 63 62 61 60 59 57 55 55 55 58 60 60 59
26 20 18 18 19 14 20 21 22 24 22 27 31 29 40 44 54 57 58 60 61 62 63 63 64 64 65 66 66 65 66 66 65 64 62 60 57 57 57 59 59 57 55 55 56 58 59 57 57
24 21 17 18 16 16 20 19 20 21 21 23 27 31 43 52 54 56 57 59 62 62 62 63 64 64 64 64 67 67 67 67 65 63 61 62 60 59 56 56 58 58 57 56 56 57 58 55 52
23 22 17 14 17 20 19 20 20 20 19 21 21 26 37 51 53 53 55 56 58 61 62 62 64 64 65 64 67 67 68 68 67 64 63 64 63 59 58 55 54 53 53 49 48 50 50 52 52
16 16 15 23 26 23 21 21 20 21 20 23 22 24 32 46 50 52 53 54 56 59 60 63 63 64 65 66 66 66 66 66 66 66 65 64 63 62 58 56 56 56 54 52 52 51 52 51 51
15 13 16 23 26 24 24 22 21 21 22 23 25 26 29 37 45 49 51 53 55 57 59 62 64 64 65 66 65 66 64 67 65 65 66 64 62 62 61 58 55 55 55 54 51 51 49 48 47
20 20 18 22 23 24 23 19 24 19 23 21 23 25 26 30 36 43 49 51 54 57 59 61 63 63 63 63 63 65 65 65 66 67 66 65 63 62 61 57 55 55 54 52 51 48 46 45 43
24 20 19 19 21 21 25 20 18 17 22 23 22 23 25 26 30 37 45 51 54 57 58 60 61 62 62 61 62 62 64 64 65 66 66 65 64 62 61 59 57 55 55 53 48 43 40 38 34
20 20 14 19 24 25 26 13 16 21 19 22 21 21 24 25 27 33 41 48 52 56 57 59 59 59 60 60 61 61 62 62 63 63 65 65 65 63 60 60 59 57 55 49 45 40 36 33 32
22 7 14 16 24 23 25 20 19 24 24 23 21 20 21 24 27 29 35 44 48 53 56 58 58 57 58 59 59 60 61 62 62 63 65 65 64 64 62 60 58 55 52 49 42 39 36 31 30
11 15 13 16 23 25 23 23 21 20 21 23 22 20 22 25 24 27 30 38 44 50 54 55 56 55 56 57 57 58 59 60 62 63 64 64 64 64 62 59 56 54 52 47 43 37 34 31 26
16 14 13 12 22 23 19 17 16 17 18 18 19 20 21 21 23 29 30 34 42 46 50 52 53 53 54 54 54 54 54 57 59 60 61 62 61 61 60 58 55 54 52 48 43 34 29 27 26
20 17 14 15 23 24 19 17 18 19 20 20 19 19 18 19 21 26 30 34 37 41 46 47 47 48 49 50 50 50 50 51 53 56 57 58 59 59 58 56 54 52 50 45 37 32 29 28 26
18 17 14 14 22 23 24 20 17 17 20 22 21 22 21 21 20 21 30 33 38 39 42 44 44 44 45 48 49 49 49 51 51 53 53 52 54 56 56 55 53 51 49 45 36 33 33 27 28
14 15 20 18 20 10 21 7 10 9 10 16 21 21 20 23 24 25 27 32 36 39 41 42 43 44 45 48 49 49 49 49 48 50 52 49 50 52 53 54 53 51 50 46 39 36 35 32 30
19 25 22 23 23 22 18 18 10 10 11 12 15 23 23 27 27 26 28 33 34 40 43 43 42 42 44 48 49 50 49 47 48 51 51 49 47 49 50 50 50 49 48 46 41 37 40 35 33
27 26 26 26 21 16 12 10 7 9 6 8 14 17 21 23 26 29 31 33 34 41 44 44 42 42 44 47 49 50 48 48 50 51 49 48 46 45 45 46 47 48 47 46 43 41 42 39 38
26 22 14 16 22 16 16 16 11 14 13 17 15 19 19 26 27 29 31 34 35 39 42 42 42 41 43 46 48 49 48 49 50 50 50 46 43 42 41 42 45 46 47 46 46 43 43 39 38
27 21 18 21 16 15 24 18 10 16 19 23 23 24 27 28 30 32 33 35 36 38 39 40 42 41 42 45 47 47 48 48 50 48 49 48 46 45 42 39 40 43 45 45 45 43 41 40 40
24 23 22 23 30 21 14 14 16 24 22 20 19 19 23 26 32 33 33 34 35 38 39 40 40 42 41 43 46 46 47 48 49 48 49 47 47 46 43 40 37 37 39 42 43 42 40 39 38
24 23 22 21 25 20 14 16 12 19 16 17 21 22 26 30 32 33 34 35 35 36 38 40 41 41 42 43 45 45 46 47 48 47 48 48 46 44 42 38 35 33 36 36 37 37 35 34 32
23 22 23 19 21 21 18 14 12 16 22 21 26 30 29 32 33 33 34 34 35 37 39 40 41 41 43 44 45 45 45 46 47 46 46 46 45 39 35 33 31 29 30 31 32 32 29 29 27
23 20 20 21 21 20 21 20 21 21 28 28 27 29 31 32 31 32 33 34 35 37 38 39 41 42 43 44 44 44 45 45 45 45 44 43 38 34 33 30 28 26 25 27 28 27 25 26 22

GFSSGP_sfc_dewp_072.txt.gz
Dewpoint
55 44 39 44 38 32 25 26 22 26 26 27 33 30 30 38 40 46 59 59 61 63 65 68 70 70 70 71 70 69 68 66 65 65 65 65 65 66 66 67 68 68 67 65 63 63 63 63 63
44 35 43 41 31 27 21 21 22 27 30 27 32 32 30 40 51 55 59 61 61 62 63 66 70 71 70 71 70 69 68 66 65 64 64 64 64 65 66 67 69 67 66 63 63 63 63 63 63
45 33 40 36 28 21 21 18 24 31 29 28 30 35 35 43 53 58 61 61 61 62 64 67 70 71 71 70 70 69 68 66 64 63 62 62 63 64 65 67 67 65 64 63 63 63 63 63 63
38 37 33 27 25 21 19 17 28 29 27 28 30 33 41 48 54 59 62 61 61 62 65 69 71 71 71 71 70 69 68 66 65 63 62 61 62 64 65 65 65 63 62 62 62 62 63 63 62
38 35 32 27 22 20 19 19 25 27 25 26 29 32 43 50 55 61 61 61 60 63 67 69 71 71 71 70 70 69 69 67 66 64 62 61 61 62 63 64 63 61 61 61 61 62 62 62 61
33 31 28 26 21 19 19 19 22 21 21 29 28 25 42 50 55 60 61 61 62 64 67 69 68 69 70 70 70 69 69 68 67 64 62 60 61 62 62 62 61 59 59 60 61 61 61 61 61
37 34 27 25 20 21 19 20 21 21 19 25 26 25 43 50 55 61 61 60 62 63 65 67 69 68 67 68 68 69 68 68 67 66 64 63 62 63 63 62 59 57 58 59 60 61 60 61 62
34 31 27 23 20 23 21 22 24 22 23 28 31 26 37 46 53 59 60 60 61 63 63 64 66 68 68 68 66 66 67 67 67 66 64 62 62 62 61 61 59 56 57 59 60 60 61 60 60
33 27 23 22 21 21 22 22 23 24 24 27 32 31 41 46 54 56 58 59 61 63 62 63 64 65 67 68 65 65 65 65 65 63 61 58 57 55 57 59 59 57 57 59 60 60 58 58 58
29 28 23 19 18 19 21 20 22 21 22 23 29 35 44 51 53 55 57 57 59 62 62 63 64 64 65 66 66 67 67 66 64 62 59 58 58 57 56 57 58 58 58 58 59 58 58 55 52
28 27 19 17 24 20 22 21 21 20 21 21 23 31 44 51 53 54 56 57 59 60 62 63 64 64 64 65 67 67 67 66 64 61 60 62 57 56 56 55 54 54 54 54 54 56 53 52 51
23 22 20 30 30 26 24 22 20 21 21 24 25 30 43 50 51 52 54 55 59 61 61 62 64 64 65 65 67 66 66 66 65 63 62 62 58 57 54 54 53 52 50 49 51 52 51 50 49
21 18 18 26 28 26 26 24 23 22 22 24 25 29 36 46 49 51 52 54 55 58 60 62 63 63 64 65 66 65 65 66 65 64 63 63 60 59 55 55 54 54 54 52 51 51 49 48 46
24 21 20 24 25 25 26 22 24 22 24 22 25 26 28 35 44 47 50 52 54 57 58 62 62 63 63 65 65 65 65 65 65 66 65 63 61 60 59 55 54 55 55 52 51 48 47 45 42
27 23 20 20 23 25 27 23 20 21 23 23 22 25 26 27 33 40 46 49 52 55 58 60 62 62 63 63 64 65 65 65 65 65 65 64 62 61 59 55 54 54 54 51 46 43 42 38 33
22 21 18 21 24 27 28 16 18 21 18 20 22 21 24 26 27 31 38 47 51 54 58 60 61 63 63 62 62 62 63 64 64 65 65 65 63 62 60 56 55 56 53 47 42 40 37 35 31
22 13 14 22 25 26 26 24 24 25 23 22 22 21 21 24 26 27 32 40 49 53 57 58 60 61 62 61 61 61 61 62 63 63 65 65 64 62 60 58 57 55 50 46 41 38 34 32 30
16 17 14 15 24 26 25 25 25 23 23 24 24 23 23 24 24 27 30 35 46 50 55 57 59 59 59 59 59 60 60 61 61 62 63 64 64 63 61 60 56 53 49 45 41 37 34 31 27
18 18 15 15 25 24 23 22 19 18 17 18 19 20 22 22 23 27 29 32 40 47 51 56 58 57 57 58 58 57 58 59 60 61 61 62 63 64 61 59 56 53 49 45 40 36 31 30 26
22 19 17 16 25 24 22 20 19 18 18 18 20 20 20 21 22 23 30 32 37 41 49 53 55 56 56 56 57 56 56 56 58 57 58 59 60 61 60 58 55 53 51 46 39 35 31 28 27
20 18 16 16 23 24 23 22 22 23 21 19 21 21 21 20 21 21 28 32 34 39 44 50 52 54 55 55 54 51 50 50 51 53 55 56 57 59 59 57 55 53 51 46 38 34 31 28 27
19 21 19 21 20 16 25 16 15 12 11 19 23 24 23 23 25 25 25 32 35 36 41 45 47 49 51 51 50 49 48 47 49 51 51 53 54 57 57 56 55 53 51 47 40 37 35 32 28
22 27 23 24 22 25 22 20 16 13 11 11 14 18 21 23 25 26 27 29 34 38 40 42 44 44 44 46 47 48 48 48 49 48 48 49 51 53 55 55 54 52 51 47 42 38 38 35 32
28 26 26 25 22 17 14 17 10 11 12 11 13 18 23 28 30 29 30 36 36 40 42 42 42 42 44 45 47 48 48 48 46 48 49 50 49 50 51 52 53 52 51 48 44 41 39 38 36
27 22 17 20 21 19 16 13 10 13 12 15 15 18 21 37 32 32 34 32 34 38 42 43 42 41 42 44 46 48 49 48 47 48 49 48 47 46 47 49 50 50 50 48 44 42 41 41 40
27 22 21 14 18 17 21 16 17 18 19 19 21 23 25 32 29 30 32 35 35 37 40 41 41 41 41 43 46 47 48 48 48 49 49 48 47 48 47 47 48 48 48 47 45 44 42 42 41
26 24 23 21 19 20 19 17 16 21 17 19 20 21 21 25 30 32 32 34 37 38 39 40 40 42 41 42 45 46 48 48 48 48 48 48 47 46 44 44 45 46 47 47 46 45 43 43 42
25 25 22 23 15 14 16 16 14 16 15 18 22 27 30 31 34 34 34 35 36 38 39 40 41 41 42 42 44 45 46 46 47 48 47 46 45 45 43 43 43 43 44 45 46 44 43 41 40
25 23 24 22 22 19 14 13 15 22 26 28 29 29 31 32 32 33 34 35 36 37 39 40 40 41 42 43 43 45 45 45 46 47 46 45 44 43 42 41 41 38 39 41 43 41 39 39 36
25 21 22 21 19 21 20 17 22 23 26 26 27 30 31 31 31 32 33 34 35 36 38 39 40 41 42 43 43 44 44 44 45 45 44 43 42 39 38 36 36 35 36 37 39 38 36 34 32

GFSSGP_sfc_dewp_075.txt.gz
Dewpoint
51 41 42 40 30 27 23 22 23 27 25 30 31 30 38 41 44 41 59 60 63 64 67 69 70 71 71 70 69 68 68 66 65 65 65 66 67 67 69 68 68 66 64 64 63 63 64 64 65
48 41 40 36 26 23 18 20 24 29 26 31 32 32 35 44 53 57 58 61 63 64 66 68 70 71 71 70 69 68 68 66 65 64 65 65 66 66 68 67 67 64 63 63 63 63 64 64 64
46 40 33 32 26 17 18 22 29 29 28 28 32 34 40 46 56 58 61 62 63 63 65 68 70 71 71 70 69 68 67 66 64 63 64 65 65 67 68 66 65 63 63 63 63 64 64 64 65
37 33 28 22 22 18 16 28 30 26 26 28 32 37 45 49 58 60 61 62 62 62 66 69 70 71 71 70 69 68 67 65 63 63 63 64 65 66 66 64 63 63 62 62 63 64 64 64 65
35 32 27 27 18 18 18 28 29 26 25 27 29 36 44 54 61 61 61 61 63 65 67 69 70 70 71 70 69 68 67 65 64 62 62 64 64 65 65 63 63 62 61 62 62 63 62 62 64
28 27 24 24 18 18 18 19 26 22 26 28 26 38 45 54 60 61 61 61 66 66 68 69 68 69 69 70 69 69 68 67 64 63 62 63 63 64 63 62 61 61 61 61 62 62 62 63 63
30 29 22 29 17 17 18 19 21 19 26 27 26 34 48 53 57 61 61 61 66 67 68 69 69 68 67 68 68 68 68 67 65 64 64 64 64 64 62 61 59 60 60 61 61 62 62 63 63
30 27 24 28 19 19 21 22 24 20 24 28 30 32 44 50 57 61 60 61 65 66 67 68 68 68 68 67 66 66 67 67 66 64 63 62 63 63 62 60 60 59 60 61 61 61 61 61 61
28 23 19 20 19 19 22 21 22 24 25 26 31 37 40 50 58 60 59 60 63 64 65 66 67 68 68 67 65 64 65 65 63 62 60 58 57 57 57 58 59 59 60 60 61 59 59 60 60
25 21 19 18 18 20 20 20 21 20 23 25 30 36 47 53 55 58 58 58 61 62 63 64 66 67 67 67 65 66 65 64 62 60 57 57 56 57 56 56 58 60 60 60 59 58 57 54 53
25 24 20 21 24 22 21 20 21 20 20 21 26 35 50 52 53 56 57 58 60 61 62 64 65 66 67 67 66 66 66 64 62 59 59 58 56 56 56 55 55 56 56 57 57 54 53 51 52
20 22 18 28 29 25 22 23 21 20 20 24 24 36 49 51 52 54 56 57 59 60 62 63 64 63 65 67 67 66 65 65 62 59 60 58 56 55 54 54 53 52 52 51 52 52 50 48 48
19 18 18 27 27 25 26 23 22 22 22 23 31 37 49 50 52 53 55 56 59 60 61 62 64 63 64 66 67 66 66 65 63 60 61 58 56 54 53 53 52 50 50 51 51 50 48 46 46
24 22 19 24 25 25 24 22 23 20 23 23 27 34 44 49 50 51 52 55 56 59 61 62 63 63 64 65 66 65 66 65 65 63 61 60 58 55 54 53 52 52 52 51 50 48 46 44 43
25 19 20 20 23 24 26 12 19 21 23 22 23 25 33 41 47 49 51 52 54 57 60 61 62 63 63 64 66 65 65 66 65 64 63 62 60 56 56 54 54 54 52 51 48 46 41 38 36
21 19 15 20 23 27 18 7 15 20 20 21 21 23 25 26 34 43 47 50 52 54 57 61 61 62 63 63 65 65 65 65 65 65 64 63 61 59 56 55 54 54 51 47 46 42 37 34 32
21 10 15 18 23 26 24 16 24 24 21 19 20 21 22 23 26 30 36 46 49 53 57 59 61 61 62 62 63 62 64 64 64 65 65 64 62 61 57 55 55 54 49 45 43 39 34 30 28
15 17 15 12 23 25 24 23 24 25 24 23 22 23 24 23 23 25 29 35 47 51 56 58 61 62 62 62 62 61 61 62 63 64 64 64 63 61 60 57 55 54 48 44 42 37 35 30 26
16 16 17 16 24 23 22 22 23 23 20 17 19 23 24 23 24 25 27 30 40 49 55 57 59 60 62 60 60 60 60 60 59 61 62 63 64 62 60 58 56 53 48 45 40 36 32 30 26
18 17 17 18 25 21 20 19 20 21 19 18 17 17 19 20 22 23 26 30 35 44 50 56 58 59 60 61 60 60 59 57 59 58 59 62 63 62 61 59 56 53 50 44 39 35 32 30 26
20 18 17 16 22 22 21 18 19 19 24 22 21 20 21 21 21 21 22 29 31 39 48 52 56 58 59 59 57 54 54 52 54 55 57 57 60 62 61 59 56 53 51 45 40 36 33 30 27
19 24 20 19 18 14 22 14 19 16 14 14 19 21 22 23 23 23 22 28 31 35 42 49 54 57 57 56 56 56 56 55 56 57 55 53 55 59 60 59 56 54 52 48 42 37 36 34 29
20 25 23 23 21 23 22 18 18 18 12 12 11 14 17 22 23 24 26 26 33 34 40 47 51 53 55 55 55 55 54 54 48 48 49 49 50 55 57 57 56 55 53 50 44 40 40 37 35
27 25 26 25 21 15 17 14 13 11 11 11 13 19 24 25 31 28 36 33 35 36 39 43 46 47 49 53 52 51 52 47 47 46 47 47 48 51 53 54 55 55 53 51 46 42 40 39 38
25 18 15 16 18 13 17 14 12 13 13 12 13 15 20 34 29 26 30 29 32 39 40 40 42 43 44 46 47 48 48 47 47 47 48 46 47 49 50 52 53 54 53 51 47 44 42 41 40
25 19 17 10 18 17 19 15 14 18 16 16 17 18 22 23 28 30 30 32 33 35 41 42 41 40 42 44 45 47 48 48 48 47 48 48 48 48 49 50 52 53 52 51 48 45 44 43 42
25 22 22 20 15 18 17 18 17 20 16 17 21 26 28 31 33 34 34 33 36 36 38 40 40 41 41 42 44 46 47 48 48 47 47 49 47 47 48 49 50 50 50 50 48 46 44 43 42
24 25 21 23 11 11 15 15 15 17 17 28 28 27 28 31 32 33 34 35 36 38 38 39 40 40 41 41 43 45 46 47 47 47 46 47 47 46 45 46 48 48 48 48 47 46 44 43 43
25 23 23 22 23 15 13 12 16 16 24 25 27 28 31 31 31 32 34 34 35 37 38 39 40 40 41 42 42 43 45 45 46 46 46 46 45 45 43 43 45 45 46 46 46 46 44 43 43
24 22 23 21 18 20 21 15 24 25 24 24 25 29 35 36 31 31 33 34 34 35 37 38 40 40 41 42 42 42 44 44 44 45 44 44 44 42 43 41 41 43 43 44 45 44 43 42 41

GFSSGP_sfc_dewp_078.txt.gz
Dewpoint
49 40 39 40 29 26 22 21 26 27 26 30 31 34 37 43 42 35 59 61 63 64 68 68 70 71 70 69 69 68 66 66 66 66 67 67 69 68 67 65 65 64 63 63 64 64 64 65 64
47 40 40 33 26 17 17 22 25 28 27 31 33 36 40 48 54 58 58 61 63 64 68 68 70 71 70 69 69 68 66 65 65 65 67 66 68 68 66 64 64 63 63 63 64 64 64 65 66
44 37 32 30 23 18 17 23 28 27 28 28 32 37 43 50 56 57 59 63 64 64 68 68 70 71 70 69 69 68 67 65 65 65 66 66 68 67 66 64 63 63 62 63 64 64 64 64 64
36 32 28 22 17 22 21 28 29 26 26 28 35 42 46 51 57 58 61 64 63 64 66 68 70 71 69 69 68 66 65 64 64 64 65 66 67 66 64 64 63 62 62 63 64 64 65 65 64
34 30 26 24 18 20 26 30 28 25 25 27 34 39 48 56 59 60 62 63 62 64 67 68 70 70 70 69 67 67 66 64 63 64 64 65 66 65 64 63 62 62 62 64 64 63 64 65 65
27 27 23 23 19 19 22 29 26 24 25 27 37 43 48 54 61 60 61 62 63 66 67 68 68 69 69 69 68 68 67 65 64 63 64 64 65 64 63 62 61 61 62 63 63 63 64 63 62
29 26 21 27 19 19 17 23 21 25 27 27 31 41 47 54 60 61 62 64 65 67 68 68 68 68 67 68 68 67 67 66 65 65 65 65 65 64 62 62 61 61 61 62 63 63 63 63 62
30 26 25 31 19 18 20 22 22 21 23 28 34 41 45 51 57 61 63 65 66 67 68 68 68 68 68 67 65 66 66 65 64 64 64 63 63 63 62 61 62 61 61 62 62 62 62 62 62
27 23 19 18 18 19 21 21 23 25 26 29 32 40 41 52 59 60 60 63 65 66 67 67 67 67 67 67 65 64 64 64 63 62 61 59 59 58 56 59 61 61 61 61 61 61 61 60 59
23 22 19 19 18 19 21 21 21 22 24 27 31 41 49 55 59 59 58 60 62 64 65 66 67 67 66 66 65 65 65 63 60 59 57 57 57 56 56 57 60 61 61 61 59 59 57 54 52
26 19 21 20 22 21 20 19 22 19 20 23 28 39 50 55 58 59 58 59 62 63 64 65 66 67 66 66 65 65 65 62 60 57 56 56 56 56 55 56 57 57 58 57 55 52 52 52 51
19 22 19 24 27 22 21 24 20 20 19 22 25 43 51 54 56 58 58 57 60 61 63 64 65 66 66 66 65 65 65 63 60 57 57 56 55 55 54 54 54 55 55 54 52 51 50 50 50
20 18 22 27 25 24 25 22 21 21 21 23 27 46 50 53 54 56 58 58 59 61 62 63 65 65 66 66 66 66 65 63 61 57 60 57 55 54 53 53 53 53 52 51 51 48 47 48 47
20 19 19 24 24 24 21 20 22 18 22 22 31 42 48 51 52 52 55 56 58 60 61 63 64 64 65 65 66 66 65 64 62 59 60 57 55 54 53 52 52 51 50 51 49 47 46 45 45
23 17 19 21 23 23 24 9 19 19 20 22 25 32 42 49 50 51 53 55 56 59 60 62 63 63 64 64 66 66 65 64 63 61 60 59 57 53 53 52 52 51 52 50 48 45 43 41 41
18 18 8 15 24 25 15 6 11 22 19 19 21 23 27 35 46 50 51 53 55 56 59 61 62 63 63 63 65 65 66 65 64 63 61 61 58 54 54 52 52 53 51 49 47 43 41 38 38
20 6 15 14 23 25 20 13 16 24 22 20 19 20 21 24 26 35 47 50 52 54 57 60 61 62 62 63 64 64 65 65 65 65 63 62 60 56 55 53 52 54 51 48 45 40 39 35 32
15 16 15 11 21 24 23 22 23 23 24 23 22 22 21 22 23 24 29 43 49 51 54 58 61 61 62 62 62 63 64 64 65 65 64 63 61 59 56 55 54 53 49 47 44 39 35 33 29
16 16 14 16 23 22 22 22 22 22 22 21 20 21 22 24 24 25 25 29 39 48 52 56 60 61 61 61 61 61 61 63 63 64 64 64 62 61 58 57 55 53 49 46 43 38 32 30 27
17 16 15 17 24 21 19 19 21 21 20 19 19 18 18 19 22 23 25 27 31 38 49 54 58 60 61 61 61 61 61 61 62 62 62 63 63 62 60 58 56 54 50 47 42 38 35 31 27
19 17 16 15 20 20 24 15 15 15 22 21 20 21 20 19 19 20 21 24 28 33 44 51 57 59 61 61 61 55 54 53 55 56 60 62 63 62 61 59 57 55 52 47 43 39 35 32 27
17 21 19 19 16 11 20 9 18 16 15 16 15 13 16 21 22 23 23 22 26 30 36 47 54 58 60 61 60 59 59 58 58 59 58 57 59 62 61 60 58 55 53 49 45 41 39 35 30
19 24 20 21 21 22 21 15 15 18 14 12 12 13 24 25 23 24 25 28 27 30 34 44 51 56 58 59 59 59 58 58 53 51 53 52 54 56 60 60 57 55 54 52 47 43 41 37 35
26 24 24 24 17 12 16 10 8 9 9 10 13 19 19 24 25 26 28 30 32 35 36 44 50 53 55 57 57 57 57 53 49 48 49 49 50 54 54 56 57 56 55 53 49 45 43 41 40
23 15 12 13 16 11 16 15 12 14 13 12 16 18 21 24 28 30 30 30 32 33 38 39 44 48 49 53 53 52 54 51 50 48 49 46 48 49 53 53 54 55 55 54 51 47 45 44 42
22 15 15 7 14 13 19 15 12 19 17 18 23 23 28 31 32 33 34 33 33 35 37 41 40 41 44 47 48 49 50 51 50 48 48 48 49 50 48 50 53 55 55 54 52 49 46 45 45
23 20 18 18 14 17 16 16 17 19 20 27 27 27 28 30 31 32 34 34 36 36 36 38 40 41 41 42 44 45 46 47 48 47 47 48 48 47 46 47 48 50 52 53 52 50 47 46 45
22 24 21 22 9 8 13 14 12 14 18 25 25 27 29 30 31 31 34 34 35 37 37 38 39 39 40 41 41 43 45 46 47 46 46 46 47 45 45 46 47 48 49 50 51 50 48 46 45
24 22 22 22 20 12 11 12 17 16 23 25 26 28 29 29 30 31 32 34 35 35 37 38 39 39 40 40 41 42 43 44 45 46 46 46 45 45 44 45 47 47 48 48 48 49 48 45 45
25 23 23 20 17 20 20 16 20 24 25 25 26 26 27 28 29 30 31 33 34 34 35 36 38 39 40 41 41 41 42 43 43 44 44 43 44 42 44 43 45 45 46 46 46 46 46 44 43